Theta_e
326 324 326 326 329 328 331 339 345 343 337 330 329 327 326 324 320 314 309 308 308 305
319 322 326 326 335 337 332 333 333 338 330 328 328 326 325 322 320 315 308 308 306 305
309 314 318 319 324 331 336 334 334 330 329 327 327 324 323 320 318 315 310 308 307 305
304 308 313 316 320 324 340 335 332 329 326 325 325 323 320 319 317 315 312 308 307 305
300 303 307 313 316 323 339 333 334 328 325 324 323 321 320 318 317 315 310 309 307 305
297 299 301 306 312 319 329 329 327 326 323 323 322 322 319 319 314 312 311 309 306 305
298 300 301 303 308 315 328 326 324 323 322 322 322 322 320 318 314 311 309 309 306 305
299 301 303 304 307 314 327 325 323 321 321 321 321 320 316 314 312 308 306 306 305 306
299 300 303 308 309 314 324 322 321 320 319 316 317 309 310 310 308 307 305 303 304 305
299 300 301 304 312 317 322 320 317 310 308 306 307 304 304 306 304 304 303 303 303 304
297 300 300 304 312 322 319 309 305 302 301 301 303 302 301 302 301 301 302 303 302 303
296 299 300 309 315 311 303 300 300 299 298 298 299 299 299 300 300 300 300 301 301 299
293 296 298 299 302 304 302 300 299 298 299 299 298 298 298 299 299 297 299 298 297 297
292 292 295 298 301 300 299 299 299 298 297 297 297 296 296 297 297 297 297 298 297 295
Wind_Speed
11 5 5 10 9 8 9 9 12 11 8 7 9 9 9 6 3 3 4 6 5 4
15 14 12 15 15 11 14 13 16 13 12 12 14 13 10 7 7 3 3 5 6 5
19 18 16 13 18 21 17 9 10 21 13 14 11 14 11 10 7 5 3 3 6 5
17 18 18 15 14 20 17 17 18 17 11 12 11 8 8 12 11 9 6 4 6 6
20 18 18 18 17 20 12 16 18 15 15 16 14 18 15 11 11 12 9 6 7 6
23 20 19 20 19 16 10 13 15 16 17 14 13 13 13 12 12 11 10 8 7 7
21 22 20 18 21 17 13 13 14 16 16 16 14 12 12 10 10 10 10 10 9 7
25 22 23 22 19 20 14 13 16 15 14 13 12 11 12 11 11 11 10 6 7 7
24 24 21 21 18 20 14 13 13 15 14 11 8 16 17 14 11 10 10 7 6 5
24 22 20 21 19 21 17 17 14 15 13 11 10 20 18 17 9 8 8 7 6 5
24 22 22 19 17 15 13 15 15 16 15 15 9 22 17 18 11 10 8 6 3 5
25 23 21 13 13 10 15 17 16 14 17 19 11 22 19 15 10 11 9 6 5 7
24 23 21 18 15 7 13 14 14 17 14 22 15 18 18 14 7 8 6 5 7 12
23 22 22 20 14 7 21 21 16 15 15 13 18 16 21 16 6 4 4 4 2 2
Wind_Direction
330 291 292 289 265 237 235 263 255 217 204 151 146 130 129 126 155 136 137 136 120 117
333 322 321 316 281 269 247 249 238 233 171 160 154 140 154 146 135 159 169 145 128 115
318 314 314 301 300 302 269 262 272 252 217 155 182 144 149 128 126 156 197 160 132 122
311 306 299 296 292 296 256 216 218 183 178 150 158 127 139 138 153 167 183 172 142 135
306 304 299 294 294 304 249 197 197 179 162 160 168 160 159 166 174 171 165 162 139 139
304 301 294 292 296 306 223 189 175 172 167 174 169 163 155 164 169 166 152 159 142 148
301 298 292 285 288 287 218 185 169 166 164 172 162 154 159 172 172 154 149 158 138 145
308 297 290 283 282 282 208 190 167 161 154 149 165 148 156 154 158 142 132 122 126 144
312 307 294 287 271 274 189 169 166 147 146 146 149 137 140 141 138 137 125 129 132 150
319 310 295 286 267 265 187 160 150 130 126 112 117 117 119 120 122 123 108 129 135 151
328 316 307 269 252 220 165 135 128 116 107 103 105 102 99 98 99 86 78 78 118 146
336 331 331 323 237 143 130 119 119 115 114 112 93 95 92 92 88 86 85 84 82 93
346 347 349 6 23 114 104 101 106 104 95 98 93 85 83 86 88 90 94 78 73 87
356 350 3 15 20 67 90 87 76 70 72 70 73 59 68 56 58 80 96 73 125 122